Hourly Data Report for October 03, 2017

All times are specified in Local Standard Time (LST). Add 1 hour to adjust for Daylight Saving Time where and when it is observed.

BEAVER ISLAND (AUT)
NOVA SCOTIA

44°49'00.000" N
62°20'00.000" W
16.00 m
8200558
71403
WBV

Download Data

Hourly Data (October 2017)
Hourly Data Report for October 3, 2017
Temp Definition
°C
Dew Point Temp Definition
°C
Rel Hum Definition
%
Wind Dir Definition
10's deg

Wind Spd Definition
km/h
Visibility Definition
km
Stn Press Definition
kPa
Hmdx Definition


Wind Chill Definition


Weather Definition


TIME
00:00 10.1 LegendMM LegendMM 35 31   102.88     LegendNANA
01:00 10.3 LegendMM LegendMM 34 25   102.95     LegendNANA
02:00 10.3 LegendMM LegendMM 33 35   102.97     LegendNANA
03:00 10.0 LegendMM LegendMM 34 30   103.01     LegendNANA
04:00 10.0 LegendMM LegendMM 35 31   103.08     LegendNANA
05:00 10.0 LegendMM LegendMM 33 35   103.14     LegendNANA
06:00 9.9 LegendMM LegendMM 35 37   103.17     LegendNANA
07:00 10.3 LegendMM LegendMM 35 39   103.22     LegendNANA
08:00 10.8 LegendMM LegendMM 35 38   103.26     LegendNANA
09:00 12.1 LegendMM LegendMM 36 34   103.27     LegendNANA
10:00 13.0 LegendMM LegendMM 1 25   103.27     LegendNANA
11:00 14.0 LegendMM LegendMM 1 28   103.25     LegendNANA
12:00 14.4 LegendMM LegendMM 35 20   103.23     LegendNANA
13:00 15.2 LegendMM LegendMM 35 18   103.20     LegendNANA
14:00 15.7 LegendMM LegendMM 33 19   103.17     LegendNANA
15:00 14.8 LegendMM LegendMM 34 22   103.10     LegendNANA
16:00 14.2 LegendMM LegendMM 36 21   103.03     LegendNANA
17:00 13.4 LegendMM LegendMM 34 17   102.98     LegendNANA
18:00 12.9 LegendMM LegendMM 34 18   103.01     LegendNANA
19:00 12.3 LegendMM LegendMM 32 15   103.02     LegendNANA
20:00 11.6 LegendMM LegendMM 33 14   103.11     LegendNANA
21:00 11.4 LegendMM LegendMM 31 15   103.05     LegendNANA
22:00 10.8 LegendMM LegendMM 29 12   102.90     LegendNANA
23:00 11.1 LegendMM LegendMM 28 15   102.94     LegendNANA

Notes on Data Quality.

Legend

  • E = Estimated
  • M = Missing
  • NA = Not Available
  • ‡ = Partner data that is not subject to review by the National Climate Archives
Date modified: